Location: Central Falls
(41.8900°N, 71.3929°W)
Time: 15:15:29
(UTC+00:00)

A-11 Canister half - All Passes

Search period start: 03 December 2023 00:00
Search period end: 13 December 2023 00:00
Orbit: 1525 x 1684 km, 47.3° (Epoch: 02 December)

Date Brightness Start Highest point End Pass type
(mag) Time Alt. Az. Time Alt. Az. Time Alt. Az.
03 Dec - 01:07:09 10° WSW 01:17:23 87° NNW 01:27:27 10° ENE visible
03 Dec - 03:13:13 10° W 03:23:17 65° N 03:33:05 10° E visible
03 Dec - 05:19:07 10° WNW 05:29:12 85° NNE 05:38:54 10° ESE night (unlit)
03 Dec - 07:24:44 10° WNW 07:33:43 42° SW 07:42:26 10° SSE visible
03 Dec - 22:41:58 10° SSW 22:51:04 39° SE 23:00:08 10° ENE visible
04 Dec - 00:45:22 10° WSW 00:55:36 89° NNW 01:05:42 10° ENE visible
04 Dec - 02:51:23 10° W 03:01:28 65° N 03:11:18 10° E visible
04 Dec - 04:57:19 10° WNW 05:07:26 83° NNE 05:17:10 10° ESE night (unlit)
04 Dec - 07:02:54 10° WNW 07:12:02 44° SW 07:20:52 10° SSE visible
04 Dec - 22:20:24 10° SSW 22:29:22 37° SE 22:38:18 10° ENE visible
05 Dec - 00:23:36 10° WSW 00:33:49 89° SSE 00:43:55 10° ENE visible
05 Dec - 02:29:33 10° W 02:39:39 65° N 02:49:31 10° E visible
05 Dec - 04:35:31 10° WNW 04:45:39 81° NNE 04:55:25 10° ESE night (unlit)
05 Dec - 06:41:05 10° WNW 06:50:20 46° SW 06:59:17 10° SSE visible
05 Dec - 08:51:34 10° WSW 08:53:23 11° WSW 08:55:11 10° SW visible
05 Dec - 21:58:50 10° SSW 22:07:39 36° SE 22:16:29 10° ENE visible
06 Dec - 00:01:49 10° WSW 00:12:02 86° SSE 00:22:10 10° ENE visible
06 Dec - 02:07:43 10° W 02:17:51 65° N 02:27:44 10° ENE visible
06 Dec - 04:13:44 10° WNW 04:23:52 80° NNE 04:33:40 10° ESE night (unlit)
06 Dec - 06:19:16 10° WNW 06:28:38 49° SW 06:37:42 10° SSE night (unlit)
06 Dec - 08:28:41 10° WSW 08:31:45 12° WSW 08:34:48 10° SW visible
06 Dec - 21:37:18 10° S 21:45:57 34° SE 21:54:37 10° ENE visible
06 Dec - 23:40:04 10° WSW 23:50:16 84° SSE 00:00:24 10° ENE visible
07 Dec - 01:45:54 10° W 01:56:01 65° N 02:05:57 10° ENE visible
07 Dec - 03:51:55 10° WNW 04:02:05 78° NNE 04:11:54 10° ESE visible
07 Dec - 05:57:27 10° WNW 06:06:56 51° SW 06:16:06 10° SSE night (unlit)
07 Dec - 08:06:11 10° W 08:10:07 13° WSW 08:14:00 10° SW night (unlit)
07 Dec - 21:15:46 10° S 21:24:16 32° SE 21:32:46 10° ENE daylight
07 Dec - 23:18:19 10° SW 23:28:29 82° SSE 23:38:37 10° ENE visible
08 Dec - 01:24:03 10° W 01:34:12 66° N 01:44:09 10° ENE visible
08 Dec - 03:30:07 10° WNW 03:40:17 77° NNE 03:50:08 10° ESE visible
08 Dec - 05:35:39 10° WNW 05:45:13 54° SW 05:54:29 10° SSE night (unlit)
08 Dec - 07:43:53 10° W 07:48:29 14° WSW 07:53:02 10° SSW night (unlit)
08 Dec - 20:54:16 10° S 21:02:34 30° SE 21:10:53 10° ENE daylight
08 Dec - 22:56:34 10° SW 23:06:43 79° SSE 23:16:51 10° ENE visible
09 Dec - 01:02:13 10° W 01:12:22 66° N 01:22:22 10° ENE visible
09 Dec - 03:08:19 10° WNW 03:18:30 75° NNE 03:28:22 10° ESE visible
09 Dec - 05:13:50 10° WNW 05:23:31 56° SW 05:32:52 10° SE night (unlit)
09 Dec - 07:21:41 10° W 07:26:51 16° WSW 07:31:57 10° SSW night (unlit)
09 Dec - 20:32:48 10° S 20:40:52 28° SE 20:49:00 10° ENE daylight
09 Dec - 22:34:50 10° SW 22:44:57 77° SSE 22:55:05 10° ENE visible
10 Dec - 00:40:24 10° W 00:50:34 67° N 01:00:35 10° ENE visible
10 Dec - 02:46:31 10° WNW 02:56:42 74° NNE 03:06:35 10° ESE visible
10 Dec - 04:52:02 10° WNW 05:01:47 59° SW 05:11:14 10° SE night (unlit)
10 Dec - 06:59:33 10° W 07:05:12 17° WSW 07:10:47 10° SSW night (unlit)
10 Dec - 20:11:19 10° S 20:19:11 27° SE 20:27:06 10° ENE daylight
10 Dec - 22:13:05 10° SW 22:23:11 75° SSE 22:33:18 10° ENE visible
11 Dec - 00:18:35 10° W 00:28:44 68° N 00:38:47 10° ENE visible
11 Dec - 02:24:42 10° WNW 02:34:54 73° NNE 02:44:49 10° E visible
11 Dec - 04:30:14 10° WNW 04:40:04 61° SW 04:49:34 10° SE night (unlit)
11 Dec - 06:37:28 10° W 06:43:34 18° SW 06:49:33 10° SSW night (unlit)
11 Dec - 19:49:53 10° S 19:57:31 25° SE 20:05:11 10° ENE daylight
11 Dec - 21:51:23 10° SW 22:01:26 72° SSE 22:11:31 10° ENE visible
11 Dec - 23:56:46 10° W 00:06:55 69° N 00:17:00 10° ENE visible
12 Dec - 02:02:53 10° WNW 02:13:06 71° NNE 02:23:01 10° E visible
12 Dec - 04:08:26 10° WNW 04:18:20 64° SW 04:27:55 10° SE visible
12 Dec - 06:15:26 10° W 06:21:54 20° SW 06:28:16 10° SSW night (unlit)
12 Dec - 19:28:29 10° S 19:35:50 24° SE 19:43:15 10° E daylight
12 Dec - 21:29:40 10° SW 21:39:40 70° SE 21:49:45 10° ENE visible
12 Dec - 23:34:56 10° W 23:45:06 69° NNW 23:55:13 10° ENE visible
